Regional Weather Roundup
Issued by NWS Columbia, SC

Home | Current Version | Previous Version | Text Only | Print | Product List | Glossary On
Versions: 1 2 3 4 5 6 7 8 9 10 11 12 13 14 15 16 17 18 19 20 21 22 23 24 25 26 27 28 29 30 31 32 33 34 35 36 37 38 39 40 41 42 43 44 45 46 47 48 49 50
000
ASUS42 KCAE 011510
RWRCAE
REGIONAL WEATHER ROUNDUP
NATIONAL WEATHER SERVICE COLUMBIA SC
1000 AM EST SUN MAR 01 2015

NOTE: "FAIR" INDICATES FEW OR NO CLOUDS BELOW 12,000 FEET WITH NO
SIGNIFICANT WEATHER AND/OR OBSTRUCTIONS TO VISIBILITY.

NOT ALL STATIONS ARE QUALITY CONTROLLED BY THE NATIONAL
WEATHER SERVICE. USE DATA WITH CAUTION...ESPECIALLY
DEWPOINT OBSERVATIONS.

SCZ001>056-GAZ040-063>065-077-011600-
...UPSTATE SOUTH CAROLINA...

CITY           SKY/WX    TMP DP  RH WIND       PRES   REMARKS
ANDERSON       LGT RAIN  37  35  92 E8        30.52F FOG     WCI  31
LIBERTY        CLOUDY    37  37 100 MISG      30.49F FOG
SPARTANBURG    MOSUNNY   36 N/A N/A NE3       30.53F FOG
CLEMSON        CLOUDY    39  34  82 CALM      30.52F HAZE
GREENVILLE     CLOUDY    37  34  89 NE6       30.52F FOG     WCI  32
GREENWOOD      LGT RAIN  35  33  92 NE7       30.55S FOG     WCI  29
GREER          CLOUDY    36  35  96 NE3       30.52S FOG
ROCK HILL      RAIN      33  31  92 N7        30.54F VSB 1   WCI  27
CHESTER        LGT RAIN  36  34  93 N5        30.56R WCI  32
LAURENS        CLOUDY    34  34 100 NE6       30.54F FOG     WCI  29


...CENTRAL SOUTH CAROLINA...

CITY           SKY/WX    TMP DP  RH WIND       PRES   REMARKS
COLUMBIA APT   LGT RAIN  36  35  96 N6        30.55S FOG     WCI  31
COLUMBIA OWENS LGT RAIN  36  33  89 VRB5      30.56F FOG     WCI  32
DARLINGTON     CLOUDY    34  30  86 N6        30.55F WCI  29
FLORENCE       CLOUDY    35  32  88 NW6       30.55R FOG     WCI  30
MCENTIRE ANGB  LGT RAIN  35  34  99 NW6       30.56R FOG     WCI  29
ORANGEBURG     LGT RAIN  36  32  85 N9        30.54S FOG     WCI  29
SUMTER SHAW    CLOUDY    35  33  93 N7        30.53F WCI  29
NEWBERRY       CLOUDY   N/A N/A N/A NE7       30.57S
AIKEN          CLOUDY    36  36 100 NE7       30.56S FOG     WCI  30
BARNWELL       DRIZZLE   37  36  93 NE3       30.54S
MANNING        CLOUDY   N/A N/A N/A N7        30.53S HAZE
CAMDEN         LGT RAIN  34  34 100 CALM      30.55F
LANCASTER      RAIN      32  32 100 CALM      30.55S
WINNSBORO      CLOUDY    32  32 100 N3        30.54F FOG


...EASTERN AND COASTAL SOUTH CAROLINA...

CITY           SKY/WX    TMP DP  RH WIND       PRES   REMARKS
MYRTLE BEACH   CLOUDY    46  37  71 N9        30.52F
N MYRTLE BCH   PTSUNNY   49  38  65 NE7       30.49F
CONWAY         CLOUDY    41  39  93 NE6       30.51F FOG
MARION         CLOUDY    36  34  93 CALM      30.53S
HARTSVILLE     CLOUDY    32  32 100 CALM      30.56R
FLORENCE       CLOUDY    35  32  88 NW6       30.55R FOG     WCI  30
DARLINGTON     CLOUDY    34  30  86 N6        30.55F WCI  29
CHARLESTON APT DRIZZLE   41  39  93 N8        30.50F
MOUNT PLEASANT DRIZZLE   43  39  87 NW7       30.49F
WALTERBORO     CLOUDY    39  39 100 N6        30.53S FOG     WCI  35
BEAUFORT       LGT RAIN  41  39  93 N9        30.51R FOG


...EASTERN GEORGIA...

CITY           SKY/WX    TMP DP  RH WIND       PRES   REMARKS
AUGUSTA BUSH F CLOUDY    37  34  89 NE8       30.55S WCI  31
AUGUSTA DANIEL CLOUDY    38  35  89 N6        30.54S WCI  33
THOMSON        CLOUDY    38  38 100 NE3       30.59R
WASHINGTON     LGT RAIN  37 N/A N/A E6        30.53F WCI  33
CLAXTON        CLOUDY    41  41 100 N3        30.51S FOG
SYLVANIA       CLOUDY    38  38 100 N7        30.52F WCI  33
STATESBORO     CLOUDY    39  39 100 N8        30.52R WCI  34
SAVANNAH       CLOUDY    43  40  89 N8        30.51R FOG


...SOUTHERN NORTH CAROLINA...

CITY           SKY/WX    TMP DP  RH WIND       PRES   REMARKS
CHARLOTTE      LGT RAIN  32  29  88 N9        30.54F WCI  24
MONROE         FRZ RAIN  32  30  92 N7        30.53F FOG     WCI  26
WADESBORO      LGT SNOW  33  32  96 N5        30.54F WCI  29
ROCKINGHAM     RAIN      32  32  99 NE7       30.51F VSB 1   WCI  26
RUTHERFORDTON  CLOUDY    34  33  97 NW3       30.53S FOG
ASHEVILLE      CLOUDY    35  33  92 S3        30.47F FOG

$$



USA.gov is the U.S. government's official web portal to all federal, state and local government web resources and services.